User: anonymous   Login
Location: Colle Santa Colomba
(42.0333°N, 12.5667°E)
Time: 07:41:58
(UTC+00:00)
Language:

H-2A R/B - Orbit

View from above orbital plane
View from above orbital plane
View from above satellite
View from above satellite

Ground track
Ground track

The orbit data is extracted from the following two-line orbital elements,

1 38341U 12025E   22019.51775971  .00000827  00000-0  10334-3 0  9996
2 38341  98.5179 224.7667 0055400 164.3463 195.9479 14.84398572523550
Epoch (UTC): 19 January 2022 12:25:34
Eccentricity: 0.0055400
inclination: 98.5179°
perigee height: 577 km
apogee height: 654 km
right ascension of ascending node: 224.7667°
argument of perigee: 164.3463°
revolutions per day: 14.84398572
mean anomaly at epoch: 195.9479°
orbit number at epoch: 52355

The dashed part of the orbit path shows where the satellite is in the earth's shadow,  

DLR